Location: Alvediston
(51.0078°N, 2.0364°W)
Time: 09:20:18
(UTC+00:00)

Cosmos 1513 Rocket - Pass Details

Date: 27 February 2020
Orbit: 940 x 1007 km, 82.9° (Epoch: 27 March)

Event Time Altitude Azimuth Distance (km) Brightness Sun altitude
Rises 19:10:12 0° 183° (S) 3,602 7.5 -14.2°
Reaches altitude 10° 19:12:40 10° 183° (S) 2,667 6.8 -14.6°
Maximum altitude 19:18:45 80° 98° (E) 979 4.4 -15.5°
Drops below altitude 10° 19:25:00 10° 12° (NNE) 2,727 6.8 -16.5°
Sets 19:27:32 0° 11° (N) 3,689 7.5 -16.9°
